CW0561 Weather Reports


Display with metric or nautical units.
time (UTC)temp
F
wind
direction
speed
MPH
gust
MPH
rain 1hr
in
rain 24hr
in
rain mn
in
humidity
%
barometer
mb
20260906182103 78 185 6.0 12.0 0.00 0.00 0.00 69 1019.6
20260906181604 78 197 7.0 13.0 0.00 0.00 0.00 70 1019.7
20260906180104 78 175 7.0 10.0 0.00 0.00 0.00 69 1019.6
20260906174604 78 135 4.0 10.0 0.00 0.00 0.00 70 1019.5
20260906174104 78 184 5.0 10.0 0.00 0.00 0.00 69 1019.7
20260906173603 78 167 5.0 10.0 0.00 0.00 0.00 69 1019.6
20260906172104 79 189 6.0 9.0 0.00 0.00 0.00 68 1019.6
20260906171604 79 174 7.0 13.0 0.00 0.00 0.00 67 1019.8
20260906171103 78 168 5.0 12.0 0.00 0.00 0.00 71 1019.8
20260906170604 78 171 6.0 13.0 0.00 0.00 0.00 69 1020.1
20260906170106 78 162 6.0 10.0 0.00 0.00 0.00 69 1020.0
20260906165603 78 141 5.0 9.0 0.00 0.00 0.00 70 1020.2
20260906165104 79 128 5.0 12.0 0.00 0.00 0.00 69 1020.0
20260906164603 78 202 5.0 14.0 0.00 0.00 0.00 70 1019.8
20260906164104 78 104 5.0 13.0 0.00 0.00 0.00 71 1019.9
20260906163604 78 133 5.0 13.0 0.00 0.00 0.00 72 1020.2
20260906163103 77 157 5.0 12.0 0.00 0.00 0.00 72 1020.2
20260906162104 76 148 6.0 10.0 0.00 0.00 0.00 75 1020.2
20260906161604 76 172 6.0 10.0 0.00 0.00 0.00 76 1020.4
20260906161104 75 164 6.0 13.0 0.00 0.00 0.00 76 1020.4
20260906160604 75 130 6.0 12.0 0.00 0.00 0.00 76 1020.4
20260906160104 75 161 5.0 12.0 0.00 0.00 0.00 77 1020.7
20260906154604 74 178 6.0 12.0 0.00 0.00 0.00 77 1020.5
20260906154104 75 166 6.0 10.0 0.00 0.00 0.00 77 1020.4
20260906153604 76 176 7.0 10.0 0.00 0.00 0.00 75 1020.3
20260906153104 75 142 6.0 9.0 0.00 0.00 0.00 77 1020.7
20260906152604 74 170 6.0 9.0 0.00 0.00 0.00 79 1020.8
20260906152103 74 155 5.0 10.0 0.00 0.00 0.00 78 1020.7
20260906151104 74 122 5.0 12.0 0.00 0.00 0.00 79 1020.7
20260906150604 75 159 7.0 14.0 0.00 0.00 0.00 77 1020.4
20260906150104 74 171 3.0 9.0 0.00 0.00 0.00 79 1020.5
20260906145603 74 136 5.0 12.0 0.00 0.00 0.00 80 1020.3
20260906145104 74 112 5.0 12.0 0.00 0.00 0.00 79 1020.2
20260906144603 74 118 6.0 13.0 0.00 0.00 0.00 79 1020.2
20260906144104 74 174 5.0 8.0 0.00 0.00 0.00 80 1020.5
20260906143604 74 196 4.0 8.0 0.00 0.00 0.00 81 1020.4
20260906143104 73 182 5.0 8.0 0.00 0.00 0.00 81 1020.5
20260906142604 74 155 5.0 9.0 0.00 0.00 0.00 81 1020.4
20260906142104 74 152 5.0 9.0 0.00 0.00 0.00 80 1020.4
20260906141603 74 115 5.0 9.0 0.00 0.00 0.00 81 1020.4
20260906141104 74 118 4.0 8.0 0.00 0.00 0.00 81 1020.3
20260906140603 73 147 3.0 9.0 0.00 0.00 0.00 83 1020.3
20260906140104 72 140 3.0 8.0 0.00 0.00 0.00 84 1020.4
20260906135603 72 75 3.0 8.0 0.00 0.00 0.00 85 1020.4
20260906135104 72 122 5.0 9.0 0.00 0.00 0.00 85 1020.3
20260906134604 71 120 2.0 7.0 0.00 0.00 0.00 86 1020.3
20260906133604 71 119 4.0 7.0 0.00 0.00 0.00 87 1020.3
20260906133104 71 120 6.0 12.0 0.00 0.00 0.00 88 1020.3
20260906132604 71 177 3.0 9.0 0.00 0.00 0.00 89 1020.2
20260906132104 70 105 3.0 8.0 0.00 0.00 0.00 90 1020.1
20260906131603 70 129 6.0 9.0 0.00 0.00 0.00 91 1020.1
20260906131104 69 119 4.0 7.0 0.00 0.00 0.00 92 1020.2
20260906130604 69 109 2.0 6.0 0.00 0.00 0.00 92 1020.0
20260906125603 69 104 3.0 7.0 0.00 0.00 0.00 93 1020.0
20260906125104 69 98 2.0 6.0 0.00 0.00 0.00 94 1020.1
20260906124603 68 80 2.0 5.0 0.00 0.00 0.00 94 1020.0
20260906124103 68 106 2.0 5.0 0.00 0.00 0.00 94 1020.1
20260906122604 67 76 2.0 5.0 0.00 0.00 0.00 95 1020.1
20260906122104 67 83 1.0 5.0 0.00 0.00 0.00 95 1019.9
20260906121604 67 114 3.0 5.0 0.00 0.00 0.00 95 1020.0
20260906121104 67 90 2.0 3.0 0.00 0.00 0.00 95 1019.8
20260906120604 67 98 2.0 3.0 0.00 0.00 0.00 95 1019.8
20260906120104 67 92 2.0 3.0 0.00 0.00 0.00 95 1019.9
20260906115604 67 49 1.0 2.0 0.00 0.00 0.00 94 1019.8
20260906115104 67 38 1.0 2.0 0.00 0.00 0.00 94 1019.6
20260906114604 67 62 0.0 1.0 0.00 0.00 0.00 94 1019.7
20260906113604 67 72 1.0 2.0 0.00 0.00 0.00 94 1019.5
20260906113104 67 68 1.0 2.0 0.00 0.00 0.00 94 1019.5
20260906112604 67 91 1.0 2.0 0.00 0.00 0.00 94 1019.5
20260906112104 67 85 1.0 2.0 0.00 0.00 0.00 94 1019.7
20260906111604 67 84 1.0 1.0 0.00 0.00 0.00 94 1019.4
20260906111103 67 84 1.0 1.0 0.00 0.00 0.00 94 1019.4
20260906110604 67 84 1.0 2.0 0.00 0.00 0.00 94 1019.2
20260906110104 67 66 1.0 2.0 0.00 0.00 0.00 94 1019.3
20260906105603 67 63 0.0 1.0 0.00 0.00 0.00 94 1019.2
20260906104103 67 87 0.0 2.0 0.00 0.00 0.00 93 1019.3
20260906103103 68 56 1.0 1.0 0.00 0.00 0.00 93 1019.1
20260906102103 67 56 0.0 1.0 0.00 0.00 0.00 93 1019.2
20260906101603 68 56 0.0 0.0 0.00 0.00 0.00 93 1019.2
20260906101104 68 56 0.0 0.0 0.00 0.00 0.00 93 1019.1
20260906100604 68 56 0.0 0.0 0.00 0.00 0.00 93 1019.1
20260906100105 68 56 0.0 0.0 0.00 0.00 0.00 92 1019.0
20260906095604 68 56 0.0 0.0 0.00 0.00 0.00 92 1019.0
20260906095103 68 56 0.0 0.0 0.00 0.00 0.00 92 1018.8
20260906094104 68 56 0.0 1.0 0.00 0.00 0.00 92 1018.6
20260906093604 68 56 0.0 1.0 0.00 0.00 0.00 92 1018.4
20260906093104 69 56 1.0 2.0 0.00 0.00 0.00 92 1018.4
20260906092604 69 101 1.0 2.0 0.00 0.00 0.00 91 1018.4
20260906092103 69 99 1.0 2.0 0.00 0.00 0.00 91 1018.5
20260906091603 69 80 0.0 2.0 0.00 0.00 0.00 91 1018.4
20260906090604 69 60 1.0 2.0 0.00 0.00 0.00 91 1018.3
20260906090104 69 87 2.0 3.0 0.00 0.00 0.00 91 1018.4
20260906085604 69 51 0.0 2.0 0.00 0.00 0.00 91 1018.3
20260906085104 69 87 1.0 3.0 0.00 0.00 0.00 91 1018.3
20260906084604 69 79 1.0 5.0 0.00 0.00 0.00 91 1018.3
20260906084103 69 105 2.0 5.0 0.00 0.00 0.00 91 1018.2
20260906083604 69 72 1.0 3.0 0.00 0.00 0.00 90 1018.3
20260906083104 69 77 1.0 2.0 0.00 0.00 0.00 90 1018.5
20260906082104 69 62 1.0 1.0 0.00 0.00 0.00 90 1018.2
20260906081604 70 81 1.0 2.0 0.00 0.00 0.00 90 1018.3
20260906081103 70 101 1.0 3.0 0.00 0.00 0.00 90 1018.4
20260906080604 70 104 1.0 3.0 0.00 0.00 0.00 90 1018.4
20260906080104 70 58 1.0 2.0 0.00 0.00 0.00 89 1018.4
20260906075604 70 69 1.0 3.0 0.00 0.00 0.00 89 1018.2
20260906075104 70 72 0.0 3.0 0.00 0.00 0.00 89 1018.4
20260906074604 70 75 0.0 2.0 0.00 0.00 0.00 89 1018.3
20260906074103 70 72 1.0 2.0 0.00 0.00 0.00 88 1018.5
20260906073604 71 71 1.0 2.0 0.00 0.00 0.00 88 1018.3
20260906073103 71 86 2.0 3.0 0.00 0.00 0.00 88 1018.3
20260906072603 71 84 1.0 1.0 0.00 0.00 0.00 87 1018.5
20260906072104 71 83 0.0 2.0 0.00 0.00 0.00 87 1018.6
20260906071604 71 85 0.0 2.0 0.00 0.00 0.00 86 1018.6
20260906071104 71 85 1.0 2.0 0.00 0.00 0.00 86 1018.7
20260906070104 71 66 0.0 2.0 0.00 0.00 0.00 86 1018.6
20260906065604 71 66 0.0 2.0 0.00 0.00 0.00 86 1018.9
20260906064103 72 65 1.0 2.0 0.00 0.00 0.00 85 1018.8
20260906063604 72 84 1.0 3.0 0.00 0.00 0.00 85 1018.7
20260906063104 72 88 1.0 5.0 0.00 0.00 0.00 85 1018.8
20260906062604 72 101 2.0 3.0 0.00 0.00 0.00 85 1018.8
20260906062104 72 96 1.0 3.0 0.00 0.00 0.00 85 1018.9
20260906061604 72 97 1.0 2.0 0.00 0.00 0.00 85 1018.8
20260906061104 72 96 1.0 2.0 0.00 0.00 0.00 84 1018.8
20260906060604 72 95 0.0 2.0 0.00 0.00 0.00 84 1018.9
20260906055603 72 95 1.0 2.0 0.00 0.00 0.00 84 1018.9
20260906055103 72 95 1.0 2.0 0.00 0.00 0.00 84 1018.9
20260906054104 71 95 0.0 1.0 0.00 0.00 0.00 85 1019.0
20260906053604 71 95 0.0 0.0 0.00 0.00 0.00 85 1019.0
20260906053104 71 95 0.0 1.0 0.00 0.00 0.00 84 1019.1
20260906052604 71 95 0.0 1.0 0.00 0.00 0.00 84 1019.0
20260906052104 72 95 0.0 1.0 0.00 0.00 0.00 83 1019.1
20260906051604 72 95 0.0 1.0 0.00 0.00 0.00 83 1018.9
20260906051104 72 95 0.0 0.0 0.00 0.00 0.00 82 1018.9
20260906050604 73 95 0.0 1.0 0.00 0.00 0.00 81 1018.8
20260906050104 73 95 1.0 2.0 0.00 0.00 0.00 81 1018.8
20260906045604 73 95 1.0 2.0 0.00 0.00 0.00 81 1019.0
20260906045103 73 95 0.0 1.0 0.00 0.00 0.00 81 1019.1
20260906044604 73 95 1.0 1.0 0.00 0.00 0.00 81 1019.0
20260906044104 73 95 1.0 1.0 0.00 0.00 0.00 81 1019.1
20260906043104 73 95 0.0 0.0 0.00 0.00 0.00 81 1019.2
20260906042604 73 95 0.0 1.0 0.00 0.00 0.00 80 1019.3
20260906042104 74 95 0.0 0.0 0.00 0.00 0.00 79 1019.2
20260906041604 74 95 0.0 1.0 0.00 0.00 0.00 79 1019.2
20260906041103 73 95 0.0 1.0 0.00 0.00 0.00 79 1019.2
20260906040604 73 95 1.0 2.0 0.00 0.00 0.00 80 1019.2
20260906040105 73 95 1.0 2.0 0.00 0.00 0.00 80 1019.2
20260906035604 73 92 1.0 1.0 0.00 0.00 0.00 80 1019.2
20260906035104 73 92 0.0 0.0 0.00 0.00 0.00 80 1019.4
20260906034604 73 92 0.0 1.0 0.00 0.00 0.00 80 1019.5
20260906033604 74 92 0.0 0.0 0.00 0.00 0.00 79 1019.5
20260906032604 74 93 0.0 0.0 0.00 0.00 0.00 78 1019.6
20260906032103 74 93 1.0 1.0 0.00 0.00 0.00 77 1019.3
20260906031604 75 92 0.0 0.0 0.00 0.00 0.00 76 1019.5
20260906031103 75 92 0.0 2.0 0.00 0.00 0.00 76 1019.6
20260906030604 75 93 0.0 2.0 0.00 0.00 0.00 75 1019.7
20260906025603 76 84 1.0 2.0 0.00 0.00 0.00 74 1019.4
20260906024604 76 64 1.0 2.0 0.00 0.00 0.00 73 1019.5
20260906024103 76 59 1.0 2.0 0.00 0.00 0.00 73 1019.7
20260906023603 76 58 0.0 0.0 0.00 0.00 0.00 73 1019.4
20260906023104 76 58 0.0 1.0 0.00 0.00 0.00 72 1019.3
20260906022604 76 58 0.0 2.0 0.00 0.00 0.00 72 1019.1
20260906022103 76 55 1.0 1.0 0.00 0.00 0.00 72 1019.1
20260906021604 76 52 0.0 2.0 0.00 0.00 0.00 71 1019.1
20260906021103 76 57 1.0 3.0 0.00 0.00 0.00 71 1018.8
20260906020604 76 106 2.0 5.0 0.00 0.00 0.00 71 1018.7
20260906020105 76 96 2.0 3.0 0.00 0.00 0.00 71 1018.5
20260906015603 77 47 1.0 2.0 0.00 0.00 0.00 71 1018.3
20260906014604 77 117 1.0 5.0 0.00 0.00 0.00 70 1018.2
20260906014104 77 80 1.0 6.0 0.00 0.00 0.00 70 1017.9
20260906013103 77 75 1.0 5.0 0.00 0.00 0.00 70 1017.7
20260906012104 78 57 1.0 3.0 0.00 0.00 0.00 69 1017.4
20260906011104 78 100 2.0 5.0 0.00 0.00 0.00 68 1017.5
20260906010604 78 101 2.0 5.0 0.00 0.00 0.00 68 1017.2
20260906010104 79 101 2.0 5.0 0.00 0.00 0.00 68 1017.2
20260906005604 79 105 2.0 6.0 0.00 0.00 0.00 67 1017.0
20260906004604 79 92 3.0 6.0 0.00 0.00 0.00 67 1016.9
20260906004104 80 95 2.0 5.0 0.00 0.00 0.00 66 1016.9
20260906003604 80 88 2.0 7.0 0.00 0.00 0.00 66 1016.6
20260906003103 80 50 1.0 7.0 0.00 0.00 0.00 65 1016.7
20260906002604 80 84 2.0 5.0 0.00 0.00 0.00 65 1016.5
20260906001603 81 116 5.0 10.0 0.00 0.00 0.00 64 1016.3
20260906001104 81 102 4.0 9.0 0.00 0.00 0.00 63 1016.2
20260906000603 82 115 5.0 12.0 0.00 0.00 0.00 62 1016.3
20260906000104 82 84 2.0 8.0 0.00 0.00 0.00 62 1016.4
20260905235604 82 94 3.0 8.0 0.00 0.00 0.00 61 1016.5
20260905234604 83 90 3.0 7.0 0.00 0.00 0.00 61 1016.7
20260905234104 83 82 2.0 8.0 0.00 0.00 0.00 60 1016.7
20260905233604 83 101 3.0 7.0 0.00 0.00 0.00 60 1016.6
20260905233104 83 91 4.0 8.0 0.00 0.00 0.00 60 1016.5
20260905232604 83 109 4.0 9.0 0.00 0.00 0.00 60 1016.3
20260905231603 83 40 2.0 7.0 0.00 0.00 0.00 59 1016.4
20260905231104 83 50 3.0 7.0 0.00 0.00 0.00 59 1016.2
20260905230604 83 93 2.0 7.0 0.00 0.00 0.00 59 1016.2
20260905225604 83 146 3.0 9.0 0.00 0.00 0.00 59 1015.8
20260905225104 83 118 3.0 9.0 0.00 0.00 0.00 59 1016.2
20260905224604 83 82 3.0 10.0 0.00 0.00 0.00 58 1016.1
20260905223604 83 47 3.0 10.0 0.00 0.00 0.00 58 1016.0
20260905223104 83 122 5.0 9.0 0.00 0.00 0.00 57 1016.0
20260905222604 83 101 4.0 10.0 0.00 0.00 0.00 58 1016.2
20260905222104 83 55 6.0 10.0 0.00 0.00 0.00 59 1016.3
20260905221104 83 107 4.0 13.0 0.00 0.00 0.00 60 1016.5
20260905220105 84 102 4.0 12.0 0.00 0.00 0.00 60 1016.5
20260905215604 84 74 3.0 8.0 0.00 0.00 0.00 60 1016.5
20260905215104 84 92 3.0 9.0 0.00 0.00 0.00 59 1016.3
20260905214604 84 80 3.0 10.0 0.00 0.00 0.00 61 1016.1
20260905214104 84 122 5.0 9.0 0.00 0.00 0.00 61 1016.0
20260905213603 84 69 4.0 8.0 0.00 0.00 0.00 61 1016.1
20260905213103 84 84 6.0 15.0 0.00 0.00 0.00 61 1016.2
20260905212603 84 77 3.0 7.0 0.00 0.00 0.00 60 1016.2
20260905212103 84 106 3.0 8.0 0.00 0.00 0.00 60 1016.3
20260905211605 83 92 5.0 10.0 0.00 0.00 0.00 61 1016.6
20260905211104 83 88 4.0 12.0 0.00 0.00 0.00 61 1016.7
20260905210603 83 131 7.0 12.0 0.00 0.00 0.00 61 1017.0
20260905210104 83 41 3.0 9.0 0.00 0.00 0.00 62 1017.2
20260905205604 82 67 2.0 8.0 0.00 0.00 0.00 62 1017.1
20260905205103 82 55 3.0 10.0 0.00 0.00 0.00 63 1017.3
20260905204604 82 127 4.0 9.0 0.00 0.00 0.00 62 1017.5
20260905204103 83 122 4.0 9.0 0.00 0.00 0.00 61 1017.5
20260905203604 83 117 2.0 6.0 0.00 0.00 0.00 62 1017.4
20260905203104 82 65 2.0 10.0 0.00 0.00 0.00 63 1017.6
20260905202604 82 143 4.0 10.0 0.00 0.00 0.00 63 1017.6
20260905202104 82 49 5.0 9.0 0.00 0.00 0.00 63 1017.6
20260905201104 82 54 2.0 5.0 0.00 0.00 0.00 65 1018.1
20260905200604 82 68 2.0 6.0 0.00 0.00 0.00 65 1018.2
20260905200104 81 67 1.0 7.0 0.00 0.00 0.00 66 1018.4
20260905195604 81 126 3.0 8.0 0.00 0.00 0.00 65 1018.3
20260905194604 81 13 2.0 6.0 0.00 0.00 0.00 65 1018.5
20260905194104 81 57 0.0 2.0 0.00 0.00 0.00 66 1018.4
20260905193604 80 6 1.0 6.0 0.00 0.00 0.00 68 1018.4
20260905193104 80 53 3.0 7.0 0.00 0.00 0.00 67 1018.5
20260905192603 80 69 3.0 7.0 0.00 0.00 0.00 68 1018.5
20260905192103 80 22 3.0 6.0 0.00 0.00 0.00 68 1018.5
20260905191604 80 41 3.0 7.0 0.00 0.00 0.00 69 1018.5
20260905191104 80 39 2.0 8.0 0.00 0.00 0.00 69 1018.6
20260905190604 80 127 5.0 8.0 0.00 0.00 0.00 68 1018.5
20260905190103 79 66 2.0 5.0 0.00 0.00 0.00 71 1018.5
20260905185104 79 56 3.0 7.0 0.00 0.00 0.00 72 1018.7
20260905184603 79 85 3.0 7.0 0.00 0.00 0.00 71 1018.5
20260905184103 79 21 3.0 6.0 0.00 0.00 0.00 73 1018.6
20260905183604 78 65 2.0 6.0 0.00 0.00 0.00 73 1018.5